Wind_Speed
5 7 8 7 7 6 6 7 7 8 8 8 7 7 8 9 10 11 12 12 11 11 11 11 10 10 9 7 5 4 4 5 6 6 6 6 5 5 5 5 6 7 8
3 4 5 5 4 2 1 2 4 5 5 5 4 3 4 6 7 8 8 9 9 9 9 10 9 9 9 8 7 5 3 3 3 4 4 4 4 4 3 3 3 4 6
1 2 3 3 2 1 1 2 2 3 4 5 4 3 3 3 5 5 5 6 7 7 8 8 7 7 7 7 7 6 5 3 2 1 1 2 2 3 3 2 3 3 4
1 1 1 1 1 2 3 4 5 6 6 6 6 5 5 4 4 5 5 5 5 6 8 9 8 6 5 4 4 4 4 5 4 2 1 1 1 1 2 2 2 3 5
3 3 2 1 3 4 5 6 7 7 7 6 6 6 6 6 6 6 7 6 6 6 9 12 12 9 6 4 3 2 2 2 3 3 1 2 3 3 3 2 2 3 3
3 3 3 3 5 6 6 7 7 7 7 6 6 7 7 7 7 8 8 8 8 8 11 13 13 11 8 6 5 4 3 1 1 2 2 1 3 5 6 5 4 3 3
3 3 3 3 4 4 5 6 7 7 7 7 7 7 8 9 9 10 10 11 12 12 13 13 12 10 8 7 6 7 6 5 3 1 0 1 2 4 6 7 8 7 6
3 3 3 3 3 5 6 6 7 8 8 8 8 8 9 11 12 13 13 14 15 15 15 13 12 11 9 8 7 8 9 9 7 6 5 4 3 3 4 6 9 8 8
6 6 7 7 8 8 9 9 9 9 10 10 10 11 12 13 15 15 16 16 17 17 16 15 14 13 12 11 10 10 10 11 11 11 10 9 8 6 4 5 8 9 9
11 12 13 14 15 16 16 16 15 14 14 15 15 15 16 18 18 19 19 19 19 19 19 18 18 17 16 15 14 13 13 13 14 14 14 14 13 11 9 7 7 9 9
16 18 20 20 21 22 23 23 22 21 21 22 22 22 22 23 23 23 23 23 23 23 23 23 22 21 20 20 19 18 17 17 18 17 17 17 16 15 14 12 11 10 10
22 23 25 26 27 27 27 28 29 29 28 28 28 28 28 28 27 27 27 27 27 28 28 28 28 26 26 25 24 23 23 23 23 22 21 19 19 18 17 16 16 15 14
27 28 29 30 31 32 32 32 32 33 33 33 33 33 33 32 32 31 31 31 32 33 33 33 33 32 31 31 30 29 29 28 28 27 26 24 22 20 19 19 19 18 18
32 33 33 33 33 34 35 36 37 37 38 38 38 38 38 37 37 36 36 36 36 37 37 38 38 38 37 36 35 34 34 35 34 33 30 28 26 24 23 22 22 22 21
35 36 36 35 34 35 36 37 37 37 37 38 38 39 39 40 40 40 40 39 39 40 41 42 42 42 41 40 38 38 38 39 39 38 35 32 30 28 26 26 26 26 25
37 36 35 34 34 34 34 34 34 34 34 34 35 36 37 37 37 37 38 38 39 39 40 40 40 41 41 41 39 39 39 40 41 42 40 38 34 30 28 27 26 27 27
37 35 33 32 32 32 32 32 33 33 34 34 35 35 34 34 34 34 34 34 34 35 35 34 34 35 35 37 37 37 37 37 39 41 41 39 37 33 30 28 27 28 28
34 32 32 32 33 32 31 31 31 31 31 32 32 32 31 31 31 31 32 32 33 35 35 36 36 36 35 36 37 37 38 37 37 37 36 36 35 33 32 31 30 30 30
30 31 32 33 33 32 31 30 28 28 28 28 28 28 28 29 29 29 30 31 32 33 35 36 37 37 37 38 39 39 39 39 38 36 34 32 32 32 32 33 33 33 32
30 31 33 33 32 31 31 30 29 27 26 25 25 25 25 25 25 26 28 30 32 33 35 36 37 38 38 38 39 39 38 38 38 37 36 35 34 33 33 34 35 35 35
33 34 33 32 31 31 31 29 27 24 22 21 20 19 18 18 19 21 23 26 29 32 35 37 38 38 38 38 38 37 36 36 35 35 34 35 35 34 34 35 36 36 37
36 36 34 33 31 30 29 26 23 19 17 16 15 13 12 13 14 16 18 21 24 28 32 35 38 39 40 40 40 39 37 35 34 33 33 33 33 34 34 35 36 36 37
38 37 35 33 32 30 27 23 19 15 13 12 12 12 13 13 14 16 18 20 22 25 28 32 36 38 40 41 42 41 39 37 35 34 33 32 32 32 33 34 35 36 38
39 36 34 34 33 30 26 23 19 16 15 15 16 17 17 17 17 18 20 21 23 26 29 31 34 37 38 40 42 42 41 39 37 35 33 32 32 33 34 34 35 36 37
37 36 35 35 34 30 27 24 22 20 21 21 22 22 22 21 19 19 21 22 24 26 29 31 33 35 37 38 40 42 42 41 38 36 34 33 33 34 35 35 35 36 36
34 34 35 35 33 30 28 27 26 25 26 27 27 27 26 23 21 21 22 24 25 27 30 32 32 32 34 36 38 40 41 41 40 38 36 35 34 34 35 35 34 35 35
Wind_Direction
113 98 93 98 99 87 69 56 49 52 56 61 64 66 69 68 64 62 65 65 63 58 54 52 54 61 63 61 60 66 68 63 58 53 51 53 64 88 98 90 83 83 85
136 114 105 111 119 116 75 44 41 37 32 30 34 45 58 59 59 59 59 57 53 48 45 45 47 51 53 52 50 46 42 45 53 55 53 56 61 75 107 130 123 107 100
156 137 119 127 151 196 259 292 328 341 338 335 334 331 345 15 31 35 40 40 36 28 23 22 29 38 42 42 44 46 44 36 25 26 39 55 72 80 91 134 169 176 155
350 11 98 136 219 246 264 282 298 311 313 311 313 312 314 328 345 352 354 3 14 14 8 3 -0 2 10 19 27 36 46 54 52 39 315 245 180 133 122 130 152 185 200
348 344 345 298 283 278 276 284 294 303 303 299 303 305 307 310 317 325 331 338 346 352 351 348 345 340 333 326 328 338 9 48 63 58 35 246 226 213 198 186 174 163 178
345 347 336 309 295 290 289 292 295 299 301 297 296 298 300 302 305 314 320 326 330 334 336 336 336 332 325 311 295 288 282 281 42 63 49 348 248 231 225 227 222 199 173
333 358 1 340 317 301 292 289 291 292 292 290 290 293 297 301 307 313 315 318 321 323 326 329 332 330 322 311 291 277 271 264 262 264 283 329 302 256 236 232 232 226 214
331 349 346 328 307 294 287 283 281 281 281 282 285 290 295 299 305 309 310 312 314 319 323 326 326 326 320 310 296 280 269 264 260 261 261 263 281 296 258 234 229 230 228
330 329 320 307 299 292 285 279 273 270 270 273 277 283 288 293 296 299 301 303 306 312 318 320 319 315 309 302 293 283 274 267 262 262 263 263 263 269 271 248 231 229 231
321 319 314 306 299 294 290 286 280 273 271 272 275 279 282 286 289 291 293 296 298 302 306 308 307 305 302 295 286 279 276 271 267 263 263 262 260 258 257 253 242 233 232
315 315 313 307 300 293 288 285 283 279 277 276 277 278 279 281 283 285 288 290 291 292 294 295 295 293 292 290 284 276 273 271 269 266 263 261 260 257 255 253 250 246 241
312 312 309 304 299 293 287 284 282 280 278 277 277 277 277 277 277 279 282 283 283 283 283 284 286 285 284 282 280 276 271 269 270 267 263 260 260 259 257 255 254 254 253
309 308 305 300 296 292 289 285 282 281 279 278 279 279 279 278 276 275 275 276 276 277 277 277 278 279 278 277 276 273 270 268 268 267 264 261 258 257 257 256 254 255 255
306 305 303 299 295 291 289 286 284 282 280 279 279 279 279 277 277 276 275 275 275 275 276 276 276 275 273 272 271 271 269 267 266 265 263 261 258 255 253 254 253 253 254
302 302 300 296 293 290 288 287 285 283 282 282 282 281 280 279 277 276 276 274 273 273 274 274 275 273 269 268 268 270 271 270 267 264 261 259 259 257 254 253 253 254 255
297 297 296 294 292 290 288 287 286 284 283 283 282 282 282 281 280 280 279 277 276 275 274 276 278 277 271 268 267 270 271 273 271 267 264 261 257 256 256 256 254 254 255
294 295 295 295 295 293 290 289 288 286 283 282 282 283 283 283 283 283 283 284 283 282 280 280 283 283 280 277 273 273 274 274 275 270 267 264 258 254 254 255 256 255 255
293 294 297 299 297 294 291 287 287 288 286 283 282 283 283 284 284 285 286 287 286 285 284 284 284 283 280 276 273 273 272 275 276 272 269 266 260 256 253 255 258 258 257
291 295 299 299 297 294 291 290 291 292 290 286 283 284 285 286 286 286 288 288 288 287 286 285 283 282 279 276 273 272 272 272 274 274 276 272 266 261 259 258 258 259 257
293 297 298 297 295 293 293 294 295 293 290 286 284 284 286 288 289 290 291 291 289 288 287 285 283 281 279 277 275 274 273 273 275 275 273 271 268 265 261 260 260 259 259
295 297 296 294 291 291 292 293 291 289 287 285 284 285 289 294 298 298 297 295 291 288 285 283 280 278 277 277 276 275 275 275 276 275 272 268 265 262 260 261 261 260 261
292 294 293 290 290 291 291 289 287 284 281 279 279 285 294 302 307 308 308 306 302 296 290 285 280 277 274 273 273 273 273 274 275 274 271 268 264 259 259 260 260 260 261
290 290 290 289 290 292 291 289 286 281 275 273 276 287 295 301 306 311 315 316 316 312 304 295 287 281 275 272 271 270 270 270 270 271 271 268 263 259 259 260 261 260 261
286 287 288 289 291 291 291 291 289 281 274 273 277 284 292 298 306 313 318 321 323 322 317 307 296 287 280 275 271 269 269 269 267 267 267 265 263 261 261 261 261 261 261
279 282 286 288 289 290 290 290 288 281 276 276 278 284 291 296 303 311 317 319 322 324 324 316 303 291 283 277 273 270 267 267 266 264 264 263 262 262 262 263 262 262 262
276 281 285 287 288 288 289 289 286 282 279 278 279 282 285 290 298 306 311 315 318 323 325 323 315 301 290 280 274 270 268 265 264 262 261 262 263 263 264 265 264 263 262
Height
5930 5929 5928 5928 5928 5928 5927 5927 5926 5925 5923 5921 5920 5919 5918 5917 5916 5915 5914 5913 5912 5910 5909 5907 5905 5903 5902 5900 5899 5898 5897 5897 5896 5895 5895 5894 5894 5893 5893 5893 5892 5892 5891
5931 5929 5928 5928 5928 5928 5927 5927 5926 5925 5923 5922 5920 5919 5918 5917 5916 5915 5914 5913 5913 5911 5910 5909 5907 5905 5903 5901 5900 5899 5898 5897 5896 5896 5895 5895 5894 5894 5893 5893 5893 5893 5893
5931 5930 5929 5929 5929 5929 5928 5927 5926 5925 5924 5922 5921 5919 5918 5917 5916 5915 5914 5913 5913 5912 5911 5910 5908 5906 5905 5903 5901 5900 5899 5898 5897 5896 5896 5895 5895 5895 5895 5894 5893 5894 5893
5932 5931 5930 5930 5930 5929 5928 5927 5926 5925 5924 5922 5921 5920 5918 5917 5917 5916 5915 5914 5913 5912 5911 5910 5909 5907 5905 5903 5902 5901 5899 5898 5897 5897 5896 5895 5895 5895 5895 5895 5894 5894 5894
5932 5931 5930 5930 5930 5929 5928 5927 5925 5924 5923 5921 5921 5920 5918 5917 5917 5916 5915 5914 5913 5912 5911 5910 5909 5907 5905 5903 5902 5901 5900 5899 5898 5897 5896 5895 5895 5895 5895 5895 5895 5894 5894
5930 5930 5929 5929 5929 5928 5927 5926 5925 5923 5922 5921 5920 5919 5918 5916 5915 5915 5914 5914 5913 5911 5910 5909 5907 5906 5905 5903 5901 5900 5899 5899 5898 5897 5896 5895 5895 5894 5894 5895 5895 5895 5894
5929 5928 5928 5928 5928 5927 5926 5925 5924 5923 5921 5920 5919 5918 5917 5916 5914 5913 5913 5912 5911 5910 5909 5908 5906 5904 5903 5902 5901 5900 5899 5898 5897 5897 5896 5895 5895 5894 5894 5894 5894 5894 5894
5927 5927 5926 5926 5926 5925 5924 5923 5922 5921 5920 5918 5917 5916 5915 5914 5913 5912 5911 5910 5909 5907 5906 5905 5904 5902 5901 5900 5900 5899 5898 5897 5897 5896 5895 5895 5894 5893 5893 5893 5893 5893 5893
5927 5927 5926 5925 5924 5923 5922 5921 5920 5919 5918 5916 5915 5914 5913 5912 5910 5909 5908 5907 5905 5904 5904 5903 5902 5901 5900 5899 5898 5897 5897 5896 5895 5895 5894 5893 5893 5893 5892 5892 5892 5892 5892
5925 5925 5924 5924 5923 5921 5920 5919 5917 5916 5915 5914 5912 5911 5910 5908 5907 5905 5904 5903 5902 5901 5900 5900 5899 5898 5897 5896 5896 5895 5894 5894 5893 5892 5892 5891 5891 5891 5891 5890 5890 5890 5890
5923 5922 5921 5921 5919 5918 5917 5915 5914 5912 5911 5910 5909 5907 5906 5904 5903 5901 5900 5899 5898 5897 5896 5895 5895 5894 5893 5893 5892 5891 5890 5890 5889 5888 5888 5888 5888 5888 5888 5888 5888 5888 5888
5920 5919 5917 5916 5915 5913 5911 5910 5909 5907 5906 5904 5903 5902 5900 5899 5897 5896 5895 5894 5893 5892 5891 5890 5889 5889 5888 5887 5887 5886 5886 5885 5884 5883 5883 5884 5884 5884 5884 5884 5884 5884 5885
5916 5915 5913 5911 5909 5907 5905 5904 5902 5901 5899 5898 5896 5895 5894 5893 5891 5890 5889 5888 5887 5886 5885 5884 5883 5883 5882 5881 5881 5880 5880 5879 5879 5878 5878 5878 5879 5879 5880 5880 5880 5881 5881
5912 5910 5907 5905 5903 5901 5899 5897 5895 5893 5892 5891 5889 5888 5887 5886 5884 5883 5882 5881 5880 5879 5877 5876 5875 5875 5874 5874 5873 5873 5872 5872 5872 5871 5871 5872 5872 5873 5874 5875 5875 5876 5876
5906 5904 5902 5899 5897 5894 5892 5890 5888 5886 5885 5883 5882 5880 5878 5877 5877 5876 5875 5873 5872 5871 5869 5868 5866 5866 5865 5865 5865 5865 5864 5863 5863 5863 5864 5864 5865 5866 5868 5869 5870 5870 5871
5900 5898 5896 5893 5890 5888 5885 5883 5881 5879 5878 5876 5874 5872 5870 5869 5868 5867 5865 5864 5863 5862 5860 5859 5858 5856 5855 5855 5856 5856 5855 5855 5855 5855 5855 5855 5856 5858 5860 5862 5863 5864 5865
5894 5892 5890 5887 5884 5881 5879 5877 5874 5872 5871 5869 5867 5864 5863 5861 5860 5859 5857 5856 5855 5854 5853 5851 5850 5848 5847 5847 5847 5847 5847 5846 5846 5846 5846 5846 5848 5850 5852 5854 5855 5857 5858
5889 5886 5883 5880 5877 5874 5872 5870 5868 5866 5864 5861 5859 5857 5856 5855 5853 5852 5851 5850 5848 5847 5845 5844 5842 5841 5840 5839 5838 5838 5838 5838 5838 5837 5838 5839 5840 5841 5844 5846 5847 5848 5850
5883 5880 5877 5874 5870 5867 5865 5863 5861 5859 5857 5854 5852 5850 5849 5848 5847 5845 5844 5843 5841 5839 5838 5836 5835 5833 5832 5831 5829 5829 5829 5829 5829 5830 5830 5831 5832 5833 5835 5837 5838 5839 5842
5877 5875 5871 5868 5864 5861 5859 5857 5854 5852 5850 5848 5846 5844 5843 5842 5840 5839 5837 5835 5834 5832 5830 5828 5827 5824 5823 5822 5820 5820 5821 5820 5821 5822 5822 5823 5824 5826 5827 5828 5829 5830 5832
5870 5868 5865 5862 5859 5856 5854 5851 5848 5846 5844 5842 5840 5838 5837 5836 5834 5832 5830 5828 5826 5824 5822 5820 5818 5816 5815 5813 5812 5812 5812 5812 5812 5813 5813 5813 5815 5817 5818 5820 5821 5821 5823
5863 5860 5857 5855 5852 5850 5848 5845 5842 5839 5837 5836 5835 5833 5832 5830 5828 5826 5824 5821 5819 5816 5814 5812 5809 5808 5807 5805 5804 5804 5804 5805 5805 5805 5804 5805 5806 5808 5810 5811 5812 5813 5814
5855 5852 5850 5847 5845 5843 5840 5838 5835 5833 5832 5831 5830 5829 5827 5825 5823 5820 5818 5815 5813 5810 5807 5803 5800 5798 5797 5796 5795 5795 5795 5797 5797 5797 5797 5797 5797 5799 5801 5802 5804 5805 5806
5847 5844 5842 5840 5838 5836 5833 5831 5829 5827 5826 5825 5824 5823 5821 5819 5817 5814 5812 5809 5806 5803 5799 5795 5791 5788 5786 5785 5784 5784 5785 5786 5788 5789 5790 5790 5790 5790 5792 5793 5795 5796 5796
5839 5837 5835 5833 5831 5829 5827 5825 5823 5822 5821 5820 5818 5816 5814 5812 5810 5808 5805 5803 5800 5797 5793 5788 5783 5778 5775 5774 5773 5773 5775 5776 5777 5779 5781 5782 5782 5782 5783 5784 5785 5786 5787
5831 5829 5827 5825 5823 5822 5820 5818 5817 5816 5815 5814 5812 5810 5808 5805 5803 5801 5798 5796 5793 5790 5786 5781 5775 5770 5766 5764 5762 5762 5764 5766 5768 5769 5771 5773 5774 5774 5774 5775 5776 5777 5778